Wind_Speed
35 35 34 32 30 30 28 30 33 23 28 24 24 26 26 27 29 33 34 37 42 43 45 46 45 43 43 43 40 39 38 34 37 34 37 41 44 44 36 30 22 22 18 11
37 34 33 33 32 28 26 30 30 29 21 31 23 24 23 26 29 32 34 38 41 44 45 45 44 42 39 40 38 35 35 32 31 32 35 39 43 41 38 25 21 19 16 13
36 34 34 36 26 26 25 24 26 25 24 27 24 24 24 25 28 31 33 38 43 45 47 45 41 37 35 37 35 32 32 28 26 28 32 36 40 38 43 31 18 16 17 15
36 32 35 31 23 22 25 22 22 23 23 25 23 24 26 26 27 30 33 38 43 47 48 40 35 33 31 34 30 29 30 26 25 22 30 36 39 36 37 31 23 14 16 14
37 35 35 33 24 23 25 18 24 23 23 24 24 24 27 25 27 29 33 37 41 47 47 37 30 29 29 32 27 26 28 26 23 26 26 29 32 31 32 31 26 21 19 15
35 36 36 27 24 26 25 21 22 24 23 25 24 25 26 25 25 27 31 35 39 45 46 37 27 26 30 28 24 24 26 24 20 24 21 25 26 27 34 25 20 24 24 29
31 35 34 21 24 27 23 21 24 24 24 25 25 26 25 24 23 25 29 31 36 41 40 34 25 24 26 25 22 21 22 23 22 20 23 25 24 25 32 28 20 21 26 22
34 35 30 24 27 26 25 25 25 25 25 22 23 24 24 23 22 24 26 27 31 33 31 29 25 25 25 22 19 18 19 19 21 21 22 24 23 25 26 31 33 28 24 25
28 27 30 27 30 25 25 23 22 22 24 24 22 21 25 20 22 22 23 22 25 26 28 26 22 23 23 19 16 15 17 16 16 18 21 25 27 25 28 29 32 31 30 28
32 28 26 30 30 28 26 21 21 21 24 22 19 22 22 20 21 21 20 18 19 20 22 21 19 18 18 16 14 13 12 14 13 15 19 21 24 29 31 32 33 33 33 34
34 30 30 27 30 28 26 25 22 22 23 23 21 22 21 20 22 20 18 16 15 15 16 15 16 15 16 18 17 13 13 15 18 19 21 23 23 24 25 26 26 27 27 27
35 32 31 29 29 29 27 24 21 24 24 24 23 20 21 21 23 20 18 14 15 12 13 12 12 13 14 15 15 15 14 13 13 14 14 14 15 16 17 18 19 20 21 21
38 37 29 29 30 34 28 25 25 22 24 24 25 22 23 22 26 21 21 16 15 14 11 11 9 10 9 7 8 7 6 9 10 10 10 11 11 12 11 11 11 12 12 13
36 35 29 33 34 35 27 29 23 19 19 23 26 24 23 25 28 26 22 21 17 18 17 13 10 7 7 8 5 1 1 2 2 2 3 4 4 5 5 6 7 8 9 10
35 35 35 38 35 35 34 30 23 18 20 21 25 27 27 24 28 30 25 24 21 21 18 17 15 12 10 10 11 12 14 12 12 13 12 10 10 10 12 13 14 15 16 17
37 38 38 38 37 37 37 32 30 28 28 25 25 29 29 25 28 31 28 27 28 24 23 21 21 18 16 16 17 18 19 21 21 20 20 20 20 19 20 21 22 24 25 27
38 39 39 40 38 35 34 34 34 31 33 29 27 29 28 28 29 33 33 33 31 29 26 27 29 24 23 24 22 24 24 25 25 26 26 27 28 29 30 31 32 34 35 36
37 37 38 37 36 36 36 36 33 32 31 32 31 30 30 30 31 34 38 36 36 31 33 32 33 31 30 31 31 28 29 31 32 34 34 35 37 38 40 41 42 43 43 44
34 34 36 36 37 37 37 35 33 33 33 33 33 34 32 33 34 34 37 39 39 36 38 39 36 34 33 35 36 37 37 38 39 40 41 39 39 41 42 43 45 46 47 47
33 34 36 37 38 39 38 36 35 35 35 35 36 37 36 36 37 36 36 39 39 39 41 44 43 42 41 42 43 44 42 40 41 40 41 40 43 46 48 49 48 49 50 54
28 29 31 34 38 39 38 37 36 35 37 37 37 37 35 36 37 38 36 40 42 42 43 44 47 46 46 46 44 45 48 45 46 48 47 48 49 50 53 52 49 52 54 57
27 29 31 33 36 38 39 39 38 38 38 39 38 39 36 35 33 34 36 37 40 42 42 43 48 48 52 51 51 50 51 55 55 57 58 57 55 54 56 61 61 57 59 61
34 33 33 35 37 39 40 40 41 40 40 40 40 40 38 38 37 34 33 37 40 41 42 45 47 51 54 57 59 59 59 58 61 63 59 62 62 60 62 65 64 62 64 64
35 36 36 34 35 36 39 39 41 42 43 43 43 43 42 42 43 43 42 43 41 42 43 43 50 52 55 60 58 58 60 60 59 57 58 58 60 66 70 66 64 64 64 66
30 31 31 31 31 28 29 33 34 36 38 39 39 41 43 43 45 47 48 48 47 46 45 48 51 53 49 45 54 61 66 63 63 62 64 67 70 67 64 63 64 65 65 66
25 26 28 28 27 28 29 30 32 33 35 37 38 40 41 41 42 42 42 40 41 43 46 50 52 51 49 49 48 51 57 60 62 66 67 64 64 62 62 64 66 67 68 69
22 21 21 22 25 28 31 33 34 34 35 36 34 34 34 36 38 38 39 39 41 42 44 43 43 43 45 46 50 54 56 57 58 59 60 62 64 65 66 68 69 70 71 72
Wind_Direction
243 244 248 253 258 261 269 275 277 280 272 281 279 287 294 304 314 317 318 318 316 320 322 321 320 322 325 330 331 335 337 329 329 333 336 340 340 344 342 344 341 359 10 5
237 242 247 253 255 261 269 272 275 276 278 279 286 287 297 301 311 316 319 323 322 324 324 320 321 321 323 329 331 334 337 331 337 343 346 349 348 345 351 347 346 356 3 16
236 242 248 252 258 261 262 272 275 276 278 280 286 290 298 303 311 317 323 324 326 327 325 323 322 323 327 330 332 334 338 335 345 359 1 359 356 355 8 9 358 2 12 9
235 238 245 256 259 258 266 270 275 275 279 283 287 292 296 307 313 320 322 326 329 330 327 327 326 327 330 332 332 335 342 343 347 347 350 357 358 5 10 19 21 5 355 1
236 239 245 253 258 259 261 263 272 277 279 285 287 289 295 306 312 319 320 328 332 333 332 332 331 329 333 332 333 339 345 349 351 350 348 360 5 8 356 11 19 15 17 36
235 241 246 249 254 257 262 264 270 277 281 280 285 284 289 302 305 314 317 329 336 338 338 335 331 332 332 335 336 342 350 354 351 359 358 8 11 13 16 20 38 37 42 53
231 240 243 247 248 255 263 266 264 273 281 279 282 283 284 296 303 309 319 332 341 343 344 343 341 339 341 341 340 343 356 1 4 359 3 8 14 20 27 40 60 43 40 70
232 241 250 247 255 264 265 264 269 272 276 277 279 279 281 290 298 306 320 336 345 349 354 354 353 346 343 346 346 341 358 7 16 21 30 31 30 30 38 37 47 49 50 60
235 237 249 256 255 264 267 271 275 275 270 270 275 270 277 284 293 303 320 336 349 355 3 0 0 357 355 356 353 347 359 17 29 42 41 45 47 49 57 54 52 54 58 61
231 234 248 254 260 260 264 270 268 264 269 267 264 260 274 280 291 299 318 329 347 352 2 15 20 19 13 9 6 6 18 27 29 40 48 54 60 59 62 64 63 64 64 61
234 236 245 251 253 260 264 265 267 271 269 263 261 260 275 282 286 295 310 319 331 343 356 22 51 54 53 43 40 48 57 66 69 71 72 71 69 67 66 65 65 63 62 64
235 235 239 244 251 254 260 271 274 266 268 265 261 262 270 278 280 286 298 303 310 323 338 355 23 44 47 53 55 60 76 79 75 78 75 72 73 73 71 68 64 61 61 59
234 239 238 241 245 253 254 264 268 267 265 265 268 261 267 267 271 275 283 287 290 298 307 325 349 19 29 42 59 58 57 62 46 48 56 58 58 58 56 53 53 59 58 53
237 243 238 241 240 252 257 258 267 273 276 271 261 263 262 261 262 266 269 280 275 281 282 293 307 318 333 325 309 299 276 305 316 345 3 8 17 10 2 358 354 351 353 354
239 240 234 241 247 249 253 253 255 260 272 277 273 266 263 266 264 266 266 270 275 265 273 281 287 288 291 300 299 301 306 306 303 304 305 302 305 307 310 313 315 314 314 316
235 238 240 242 244 247 253 254 250 255 266 272 274 272 271 268 263 264 264 264 266 264 263 265 272 274 276 284 290 294 295 296 299 299 299 302 304 304 303 301 299 298 298 299
234 238 240 242 247 251 257 257 258 257 261 265 266 267 271 272 267 266 265 265 265 267 266 260 262 265 266 273 278 284 287 289 291 292 295 297 298 299 298 297 296 296 296 297
235 237 242 246 250 254 257 259 261 260 260 261 261 265 265 269 271 267 268 266 262 263 261 263 266 268 265 268 275 277 280 283 286 287 290 290 291 292 292 292 292 292 292 292
239 240 243 247 251 255 258 260 263 264 263 263 265 269 265 264 267 270 271 270 270 263 263 264 267 267 266 268 274 279 282 283 282 282 284 286 289 291 292 292 292 292 293 294
243 242 243 248 252 256 259 262 262 263 264 265 265 268 270 268 268 270 268 269 271 269 264 266 266 268 269 271 274 279 278 273 275 277 281 284 289 293 293 289 293 292 293 293
241 244 245 248 252 255 258 261 263 262 262 261 262 264 268 271 271 273 272 271 273 274 274 267 265 268 270 270 271 273 274 273 276 279 280 284 283 285 286 288 285 287 289 287
242 240 241 245 248 252 254 256 258 260 261 262 263 264 263 268 274 278 280 280 277 277 276 277 274 266 267 270 270 271 271 273 275 278 283 284 281 282 285 285 289 286 285 285
239 239 237 241 245 249 252 255 257 260 261 263 265 264 266 264 268 272 280 282 283 283 282 278 276 273 265 265 267 269 271 273 275 274 279 282 283 283 281 283 285 284 285 287
236 244 250 249 250 257 260 261 261 262 263 264 266 267 268 266 266 269 276 279 278 277 276 281 279 279 277 269 262 265 269 270 275 276 279 279 280 280 282 285 287 287 287 287
247 254 262 269 273 274 275 274 275 274 271 271 270 271 273 274 273 273 275 278 275 274 274 274 277 282 285 281 274 266 263 268 274 275 275 279 282 285 287 288 288 288 289 287
258 266 271 275 275 273 269 265 265 267 271 273 273 274 275 279 282 283 280 278 277 279 281 280 280 281 281 279 275 272 273 274 277 279 281 283 286 288 289 287 288 289 290 289
257 263 264 263 264 264 266 270 274 276 278 277 279 281 283 283 283 282 281 284 283 284 279 280 279 279 280 282 283 284 284 285 285 286 286 286 287 288 289 288 288 287 287 287
Height
5610 5613 5616 5619 5621 5621 5623 5623 5621 5627 5622 5625 5624 5621 5618 5615 5612 5607 5602 5596 5589 5581 5572 5563 5553 5546 5537 5529 5520 5510 5500 5491 5483 5474 5465 5453 5439 5426 5414 5404 5396 5386 5377 5371
5600 5604 5607 5609 5612 5614 5616 5615 5614 5615 5619 5612 5616 5614 5611 5608 5605 5600 5595 5588 5581 5573 5564 5555 5546 5539 5531 5523 5515 5505 5495 5487 5480 5470 5462 5450 5437 5426 5414 5405 5399 5392 5385 5379
5590 5595 5598 5599 5607 5605 5608 5609 5608 5608 5610 5608 5608 5607 5604 5602 5598 5594 5589 5582 5574 5566 5556 5547 5539 5532 5525 5517 5509 5501 5492 5484 5477 5469 5461 5451 5440 5428 5416 5406 5403 5399 5393 5389
5582 5586 5588 5594 5596 5598 5599 5601 5600 5600 5601 5600 5600 5600 5596 5595 5592 5588 5583 5576 5567 5558 5549 5539 5532 5526 5519 5512 5505 5497 5489 5481 5474 5469 5461 5452 5442 5432 5423 5414 5408 5405 5400 5396
5572 5578 5582 5584 5589 5591 5591 5596 5592 5593 5593 5593 5592 5591 5589 5587 5585 5582 5577 5570 5562 5553 5541 5531 5526 5521 5515 5508 5501 5494 5487 5480 5473 5468 5462 5454 5446 5437 5429 5422 5415 5410 5405 5400
5565 5568 5573 5579 5581 5581 5583 5587 5586 5586 5586 5585 5584 5583 5581 5580 5579 5576 5571 5564 5557 5548 5536 5527 5521 5516 5511 5504 5498 5493 5486 5480 5474 5468 5463 5456 5449 5442 5435 5427 5423 5419 5413 5410
5557 5559 5565 5571 5572 5573 5577 5581 5578 5579 5578 5578 5578 5576 5574 5573 5572 5570 5566 5560 5552 5544 5534 5525 5518 5513 5508 5502 5497 5493 5487 5481 5475 5469 5464 5458 5452 5446 5440 5435 5431 5428 5423 5419
5549 5553 5559 5563 5564 5566 5568 5568 5570 5572 5571 5570 5570 5568 5568 5566 5565 5564 5560 5554 5548 5542 5533 5525 5517 5511 5505 5500 5496 5492 5488 5483 5478 5472 5466 5460 5456 5451 5447 5442 5438 5434 5433 5431
5545 5548 5549 5553 5554 5558 5559 5560 5561 5563 5563 5563 5563 5562 5560 5560 5558 5557 5554 5549 5544 5539 5532 5523 5515 5509 5504 5499 5495 5492 5489 5485 5481 5476 5472 5467 5461 5457 5453 5450 5446 5444 5442 5439
5535 5541 5543 5542 5545 5548 5550 5552 5552 5554 5555 5556 5556 5554 5553 5553 5552 5551 5548 5544 5540 5536 5530 5523 5515 5509 5504 5499 5495 5492 5490 5487 5484 5480 5477 5473 5469 5466 5462 5459 5456 5454 5452 5449
5526 5534 5533 5536 5537 5539 5541 5543 5545 5546 5548 5547 5547 5547 5547 5547 5545 5544 5542 5540 5537 5533 5529 5523 5516 5510 5504 5501 5497 5493 5491 5489 5486 5484 5481 5478 5476 5473 5470 5468 5466 5464 5462 5460
5519 5522 5524 5527 5529 5530 5532 5534 5536 5538 5539 5538 5539 5540 5540 5540 5539 5538 5536 5535 5533 5529 5526 5522 5517 5512 5508 5502 5499 5497 5495 5492 5489 5486 5483 5480 5478 5476 5474 5472 5470 5469 5468 5466
5510 5512 5518 5521 5521 5520 5524 5526 5527 5530 5530 5531 5531 5532 5532 5532 5531 5530 5529 5528 5527 5525 5523 5520 5516 5513 5509 5505 5501 5500 5498 5495 5493 5490 5488 5485 5482 5481 5479 5477 5475 5474 5472 5471
5501 5503 5511 5511 5510 5511 5517 5518 5520 5522 5522 5521 5522 5523 5523 5524 5522 5521 5521 5521 5521 5520 5518 5516 5513 5510 5508 5506 5503 5499 5497 5495 5493 5490 5487 5485 5483 5481 5479 5477 5476 5474 5473 5472
5490 5491 5498 5498 5502 5505 5507 5510 5513 5514 5513 5515 5514 5515 5515 5515 5515 5514 5513 5513 5513 5512 5511 5510 5509 5507 5504 5502 5499 5498 5496 5493 5491 5489 5487 5485 5482 5480 5478 5476 5474 5472 5470 5469
5478 5481 5486 5490 5494 5497 5497 5502 5504 5506 5506 5508 5507 5506 5506 5507 5506 5505 5504 5504 5504 5503 5504 5503 5501 5500 5499 5498 5496 5492 5490 5488 5485 5483 5481 5480 5478 5476 5474 5472 5469 5467 5465 5463
5468 5473 5477 5480 5483 5487 5490 5492 5495 5497 5497 5498 5498 5497 5497 5497 5497 5495 5494 5495 5495 5495 5495 5495 5491 5492 5491 5489 5488 5487 5484 5482 5479 5476 5474 5472 5470 5468 5466 5463 5461 5458 5456 5454
5460 5465 5468 5471 5475 5478 5481 5482 5484 5486 5487 5487 5488 5488 5488 5487 5487 5485 5484 5485 5485 5486 5484 5483 5482 5482 5482 5480 5479 5478 5476 5473 5471 5468 5466 5463 5461 5458 5456 5453 5450 5448 5445 5442
5451 5457 5460 5462 5465 5468 5470 5472 5474 5475 5476 5476 5477 5477 5477 5477 5476 5475 5474 5474 5474 5475 5472 5471 5473 5473 5472 5469 5468 5467 5466 5463 5460 5457 5455 5452 5449 5447 5443 5440 5437 5434 5432 5429
5442 5448 5450 5453 5455 5457 5459 5461 5463 5464 5465 5466 5466 5466 5466 5465 5465 5464 5464 5463 5461 5461 5460 5459 5461 5461 5459 5458 5456 5454 5453 5451 5448 5445 5443 5440 5437 5435 5431 5427 5424 5420 5417 5414
5434 5437 5441 5444 5446 5447 5449 5450 5451 5453 5453 5454 5455 5454 5454 5453 5453 5452 5452 5451 5449 5448 5447 5446 5446 5446 5446 5444 5442 5441 5439 5436 5433 5431 5428 5425 5422 5419 5416 5412 5409 5405 5402 5398
5425 5428 5430 5432 5433 5435 5437 5439 5440 5441 5442 5442 5442 5442 5442 5442 5441 5440 5439 5438 5436 5435 5434 5433 5431 5430 5430 5429 5428 5424 5422 5419 5416 5414 5412 5409 5405 5402 5399 5395 5392 5387 5384 5380
5414 5415 5419 5421 5422 5424 5426 5428 5429 5429 5430 5430 5430 5430 5429 5429 5429 5428 5427 5425 5423 5421 5420 5418 5416 5414 5412 5410 5408 5406 5403 5400 5396 5393 5392 5390 5386 5383 5379 5375 5371 5367 5363 5359
5407 5407 5409 5412 5415 5416 5417 5418 5419 5419 5419 5419 5418 5418 5417 5417 5416 5415 5413 5412 5410 5407 5405 5403 5401 5397 5393 5390 5387 5386 5384 5380 5377 5374 5372 5369 5366 5363 5359 5354 5349 5345 5341 5337
5403 5405 5406 5407 5408 5409 5410 5410 5409 5409 5408 5408 5407 5405 5404 5403 5402 5400 5398 5397 5395 5392 5390 5388 5384 5380 5377 5374 5370 5367 5363 5362 5360 5356 5352 5349 5345 5341 5336 5331 5327 5323 5319 5314
5399 5400 5401 5401 5401 5400 5399 5399 5398 5397 5396 5395 5394 5393 5391 5389 5388 5386 5383 5382 5380 5378 5375 5372 5369 5365 5362 5359 5356 5353 5349 5346 5341 5337 5332 5327 5323 5318 5314 5310 5305 5301 5296 5291
5394 5394 5394 5394 5393 5392 5391 5390 5388 5387 5385 5384 5382 5381 5379 5377 5375 5373 5371 5368 5366 5364 5361 5358 5355 5351 5347 5343 5339 5336 5331 5327 5322 5316 5312 5307 5303 5298 5293 5288 5283 5278 5273 5267